This demonstration page uses our WeatherBlox Daily Observations layout. Learn more.

Left ArrowRight Arrow

Hourly Observations for July 18, 2018

Temp ( °F °C ) Dew Point ( °F °C ) Humidity (%) Winds ( mph kmh ) Pressure ( in mb ) Visibility ( mi km ) Precip ( " mm )
12:53 am 00:53 Partly Cloudy 77 25 48 8.9 36 36 S 9 15 29.85 1011 10 16 0.00 0.00
1:53 am 01:53 Clear 69 20.6 52 11.1 55 55 W 5 7 29.86 1011 10 16 0.00 0.00
2:53 am 02:53 Clear 72 22.2 54 12.2 53 53 SW 15 24 29.85 1011 10 16 0.00 0.00
3:53 am 03:53 Clear 71 21.7 53 11.7 53 53 SW 16 26 29.85 1011 10 16 0.00 0.00
4:53 am 04:53 Clear 67 19.4 53 11.7 61 61 SSW 7 11 29.84 1010 10 16 0.00 0.00
5:53 am 05:53 Sunny 73 22.8 50 10 44 44 NNW 8 13 29.85 1011 10 16 0.00 0.00
6:53 am 06:53 Mostly Sunny 72 22.2 52 11.1 50 50 WSW 7 11 29.86 1011 10 16 0.00 0.00
7:53 am 07:53 Mostly Sunny 71 21.7 57 13.9 61 61 SW 10 17 29.86 1011 10 16 0.01 0.25
8:53 am 08:53 Sunny 72 22.2 56 13.3 57 57 SW 9 15 29.86 1011 10 16 0.00 0.00
9:53 am 09:53 Sunny 78 25.6 53 11.7 42 42 SW 18 30 29.85 1011 10 16 0.00 0.00
10:53 am 10:53 Sunny 83 28.3 51 10.6 33 33 SW 17 28 29.84 1010 10 16 0.00 0.00
11:53 am 11:53 Sunny 90 32.2 50 10 25 25 SSW 17 28 29.82 1010 10 16 0.00 0.00
12:53 pm 12:53 Sunny 94 34.4 40 4.4 15 15 W 14 22 29.87 1011 10 16 0.00 0.00
1:53 pm 13:53 Sunny 96 35.6 34 1.1 11 11 W 17 28 29.78 1008 10 16 0.00 0.00
2:53 pm 14:53 Sunny 96 35.6 31 -0.6 10 10 W 14 22 29.76 1008 10 16 0.00 0.00
3:53 pm 15:53 Sunny 97 36.1 35 1.7 11 11 WNW 13 20 29.75 1008 10 16 0.00 0.00
4:53 pm 16:53 Sunny 95 35 45 7.2 18 18 WNW 24 39 29.76 1008 10 16 0.00 0.00
5:53 pm 17:53 Sunny 93 33.9 46 7.8 20 20 NW 22 35 29.77 1008 10 16 0.00 0.00
6:53 pm 18:53 Sunny 91 32.8 47 8.3 22 22 NNW 16 26 29.77 1008 10 16 0.00 0.00
7:53 pm 19:53 Sunny 88 31.1 49 9.4 26 26 NNW 15 24 29.78 1008 10 16 0.00 0.00
8:53 pm 20:53 Sunny 84 28.9 51 10.6 32 32 NNW 9 15 29.80 1009 10 16 0.00 0.00
9:53 pm 21:53 Clear 79 26.1 51 10.6 38 38 NNW 7 11 29.83 1010 10 16 0.00 0.00
10:53 pm 22:53 Clear 76 24.4 52 11.1 43 43 NNE 7 11 29.83 1010 10 16 0.00 0.00
11:53 pm 23:53 Clear 73 22.8 54 12.2 51 51 NNE 7 11 29.86 1011 10 16 0.00 0.00

Powered by AerisWeather